Terug naar catalogus

STARLINK-5597

ActiefCommunicatieVLEO
NORAD 55403·PAYLOAD·🇺🇸 United States

Gelanceerd Jan 31, 2023 vanaf Vandenberg Space Force Base

Loading…

Volgende Passages (komende 24 uur)

TLE

VersSource: CelesTrak SupGP

Epoch: Sep 14, 2026, 22:05 UTC

1 55403C 23014N   26257.92062500  .00029927  00000+0  25087-2 0  2572
2 55403  70.0000 307.3269 0003448 273.7781 340.0009 14.98303278    12

Volg STARLINK-5597 in realtime met AllMySat

Download on the App Store